Regional Weather Roundup
Issued by NWS Little Rock, AR

Home | Current Version | Previous Version | Text Only | Print | Product List | Glossary On
Versions: 1 2 3 4 5 6 7 8 9 10 11 12 13 14 15 16 17 18 19 20 21 22 23 24 25 26 27 28 29 30 31
000
ASUS44 KLZK 281705
RWRLZK

WEATHER ROUNDUP FOR ARKANSAS
NATIONAL WEATHER SERVICE LITTLE ROCK AR
1200 PM CDT WED JUN 28 2017

NOTE: "FAIR" INDICATES FEW OR NO CLOUDS BELOW 12,000 FEET WITH NO
SIGNIFICANT WEATHER AND/OR OBSTRUCTIONS TO VISIBILITY.

ARZ001-003-010-029-281800-
NORTHWEST ARKANSAS

CITY           SKY/WX    TMP DP  RH WIND       PRES   REMARKS
FAYETTEVILLE   SUNNY     81  68  64 S14       30.01S
FORT SMITH     MOSUNNY   85  70  60 MISG      29.97F HX  89
HARRISON       PTSUNNY   81  65  58 S7        30.04S
BENTONVILLE    MOSUNNY   81  66  61 S10G17    30.01F
ROGERS         MOSUNNY   82  67  60 S14G23    30.01F
SILOAM SPGS    MOSUNNY   82  66  57 S17G24    29.99F HX  85
HIGHFILL       MOSUNNY   83  68  60 S12       30.00F HX  86
SPRINGDALE     PTSUNNY   82  68  61 S12G23    30.02F HX  85
$$

ARZ004-005-016-281800-
NORTH CENTRAL ARKANSAS

CITY           SKY/WX    TMP DP  RH WIND       PRES   REMARKS
BATESVILLE     PTSUNNY   82  66  57 S9        30.04S HX  85
FLIPPIN        PTSUNNY   82  63  51 S8        30.00F
MTN HOME       MOSUNNY   82  66  58 S7        30.02F
$$

ARZ040-041-281800-
WEST CENTRAL ARKANSAS

CITY           SKY/WX    TMP DP  RH WIND       PRES   REMARKS
MENA           PTSUNNY   82  70  65 CALM      30.02S HX  86
$$

ARZ009-017-025-026-028-281800-
NORTHEAST ARKANSAS

CITY           SKY/WX    TMP DP  RH WIND       PRES   REMARKS
CORNING        LGT RAIN  84  72  65 S12       30.05F HX  89
JONESBORO      MOSUNNY   86  70  58 S15       30.04F HX  90
WALNUT RIDGE   SUNNY     84  66  54 S14       30.04F HX  86
BLYTHEVILLE    SUNNY     84  67  56 S12G18    30.07F HX  86
$$

ARZ022-023-033-042-044-281800-
CENTRAL ARKANSAS

CITY           SKY/WX    TMP DP  RH WIND       PRES   REMARKS
LITTLE ROCK    PTSUNNY   85  66  53 S13G20    30.02F HX  87
N LITTLE ROCK    N/A     84  67  55 S7        30.01F HX  86
JACKSONVILLE   MOSUNNY   85  67  55 S12       30.02S HX  88
CONWAY           N/A     86  66  51 S12       30.00S HX  88
SEARCY         MOSUNNY   84  69  60 SW9       30.05S HX  88
HOT SPRINGS    MOSUNNY   85  65  51 SW7       30.02S HX  86
RUSSELLVILLE   SUNNY     84  66  54 CALM      30.01S HX  86
CLINTON        FAIR      82  64  54 SW12      30.02F
$$

ARZ036-281800-
EAST ARKANSAS

CITY           SKY/WX    TMP DP  RH WIND       PRES   REMARKS
WEST MEMPHIS   SUNNY     84  68  58 S12       30.05F HX  87
$$

ARZ050-053-066-070-073-281800-
SOUTHWEST ARKANSAS

CITY           SKY/WX    TMP DP  RH WIND       PRES   REMARKS
ARKADELPHIA    FAIR      85  68  56 S7        30.01F HX  88
CAMDEN         MOSUNNY   86  66  51 SE6       30.01S HX  88
TEXARKANA      MOSUNNY   84  68  58 S12       29.99F HX  87
EL DORADO      SUNNY     85  68  56 SE7       30.01F HX  88
DE QUEEN       MOSUNNY   85  72  65 S6        29.97S HX  91
$$

ARZ056-057-069-281800-
SOUTHEAST ARKANSAS

CITY           SKY/WX    TMP DP  RH WIND       PRES   REMARKS
PINE BLUFF     MOSUNNY   84  66  54 S9        30.02F HX  86
STUTTGART      PTSUNNY   84  59  42 S13       30.04F
MONTICELLO     MOSUNNY   84  66  54 SE6       30.03F HX  86

$$






USA.gov is the U.S. government's official web portal to all federal, state and local government web resources and services.